Temp
70 70 72 71 71 71 71 72 71 71 71 71 70 70 69 70 69 69 69 68 68 67 66 66 67 67 67 67 67 67 63 64
69 69 69 69 69 69 69 69 69 69 69 69 68 68 68 68 68 68 68 68 67 66 66 66 66 67 67 67 67 65 61 62
69 69 68 68 69 70 69 69 68 68 68 68 66 64 64 64 66 67 67 66 66 66 66 66 66 67 68 67 65 61 59 59
68 68 67 68 70 68 68 69 67 65 65 65 64 61 60 63 64 66 66 66 66 66 66 65 64 60 60 64 61 59 57 57
68 68 68 68 67 66 66 66 65 63 63 63 60 61 60 57 55 58 55 63 58 61 60 59 59 58 59 59 58 56 54 55
70 69 68 68 67 66 67 67 66 63 63 62 59 59 56 53 53 53 54 55 55 56 55 57 58 60 60 59 57 54 53 51
69 69 68 68 67 67 67 68 67 64 63 63 62 59 57 55 54 55 55 55 55 55 56 57 57 58 59 59 57 54 53 51
69 68 69 69 68 68 68 69 67 66 65 62 61 60 58 56 55 56 56 57 57 56 56 55 55 56 56 57 57 55 52 51
68 68 69 69 69 68 69 68 68 65 64 62 60 59 57 56 55 55 56 55 55 55 55 54 54 57 55 55 55 54 52 51
69 70 68 68 69 69 70 67 67 64 64 61 60 59 58 56 56 55 54 55 54 54 54 53 52 53 52 53 52 53 53 51
67 68 66 66 67 66 64 64 63 62 61 61 58 58 58 56 55 54 54 54 54 54 53 53 52 52 53 51 51 51 52 56
67 68 67 66 65 63 61 63 61 58 59 60 57 57 57 55 54 53 54 52 52 53 53 53 52 52 60 53 49 49 50 49
65 66 66 66 63 61 61 62 59 56 59 59 56 57 56 55 54 54 53 52 52 52 51 52 50 51 49 47 47 49 49 49
64 65 66 65 64 65 59 59 57 57 58 59 58 56 54 54 54 53 52 52 51 51 51 49 49 50 48 46 42 45 47 49
65 66 64 66 66 65 62 59 58 57 54 56 57 57 54 54 53 53 51 52 51 50 50 50 47 48 51 48 42 40 43 45
66 66 64 65 64 63 61 59 59 59 53 55 56 56 54 53 54 53 51 51 52 51 52 49 47 45 46 51 47 47 43 40
65 64 63 63 64 64 62 61 60 55 54 54 54 53 54 54 52 51 49 49 49 50 48 49 47 46 46 46 46 46 45 42
63 63 62 62 62 63 62 60 56 57 54 52 52 52 53 53 53 50 49 48 48 48 49 48 47 48 48 48 46 44 42 40
61 62 61 61 61 61 62 60 58 58 54 53 52 52 52 51 51 50 49 47 47 47 48 47 46 45 45 44 44 44 45 43
60 61 59 60 61 59 57 59 59 58 57 56 54 53 53 51 50 50 48 48 47 46 45 44 44 43 44 43 42 43 43 43
MSLP
1010.89 1011.52 1011.88 1012.28 1012.61 1013.08 1013.60 1013.92 1014.22 1014.85 1015.16 1015.54 1016.17 1016.65 1016.83 1017.25 1017.75 1018.04 1018.32 1018.62 1018.81 1018.89 1018.94 1018.94 1018.88 1018.74 1018.72 1018.92 1019.23 1019.55 1019.69 1019.95
1010.96 1011.48 1011.98 1012.51 1012.75 1013.02 1013.47 1014.00 1014.28 1014.71 1015.19 1015.63 1016.47 1016.85 1017.07 1017.25 1017.68 1018.13 1018.57 1018.81 1018.89 1019.06 1019.14 1019.07 1019.00 1018.88 1018.76 1019.05 1019.41 1019.93 1020.27 1020.47
1010.85 1011.27 1011.62 1012.27 1012.72 1013.12 1013.62 1014.04 1014.43 1014.87 1015.22 1015.70 1016.50 1016.86 1017.26 1017.52 1017.79 1018.04 1018.42 1018.79 1019.10 1019.16 1019.19 1019.19 1019.20 1019.12 1019.01 1019.38 1019.81 1020.56 1020.94 1021.21
1010.81 1011.31 1011.57 1011.98 1012.63 1013.19 1013.64 1014.13 1014.58 1015.01 1015.35 1015.80 1016.38 1016.86 1017.13 1017.49 1017.84 1018.24 1018.44 1018.60 1018.80 1019.08 1019.33 1019.44 1019.30 1019.45 1019.48 1019.89 1020.42 1020.97 1021.30 1021.76
1010.67 1011.09 1011.20 1011.83 1012.63 1013.18 1013.59 1014.10 1014.60 1014.98 1015.29 1015.80 1016.25 1016.64 1017.21 1017.60 1017.90 1018.04 1018.44 1018.68 1018.79 1018.93 1019.25 1019.48 1019.54 1019.62 1019.66 1020.31 1020.90 1021.28 1021.74 1022.14
1010.51 1010.86 1011.11 1011.68 1012.36 1012.87 1013.39 1013.62 1014.31 1014.78 1015.12 1015.58 1016.03 1016.67 1017.15 1017.76 1018.11 1018.15 1018.21 1018.29 1018.72 1019.12 1019.37 1019.32 1019.40 1019.44 1019.70 1020.28 1020.97 1021.59 1022.07 1022.57
1009.62 1010.36 1010.71 1011.26 1012.05 1012.57 1012.99 1013.16 1013.72 1014.25 1014.68 1015.20 1015.49 1016.07 1016.70 1017.21 1017.68 1017.90 1018.09 1018.18 1018.45 1018.89 1019.04 1019.42 1019.60 1019.71 1019.98 1020.44 1021.08 1021.73 1022.25 1022.78
1009.11 1009.79 1010.34 1010.66 1011.34 1011.97 1012.53 1012.75 1013.20 1013.77 1014.12 1014.67 1015.07 1015.44 1015.95 1016.51 1017.00 1017.29 1017.68 1017.80 1018.10 1018.47 1019.00 1019.45 1019.78 1020.04 1020.37 1020.65 1021.38 1022.01 1022.44 1022.87
1008.61 1009.38 1010.01 1010.43 1010.83 1011.42 1011.80 1012.11 1012.62 1013.15 1013.48 1014.08 1014.47 1014.82 1015.52 1016.02 1016.47 1016.96 1017.18 1017.53 1018.03 1018.42 1018.92 1019.41 1019.96 1020.15 1020.74 1020.96 1021.34 1022.13 1022.72 1023.14
1008.22 1008.95 1009.55 1010.06 1010.26 1010.77 1011.20 1011.65 1012.04 1012.63 1013.01 1013.63 1014.06 1014.45 1014.98 1015.55 1016.11 1016.66 1017.00 1017.37 1017.82 1018.42 1019.04 1019.49 1019.97 1020.38 1020.83 1021.18 1021.59 1021.92 1022.61 1023.14
1006.77 1008.25 1008.89 1009.45 1010.13 1010.46 1010.76 1011.20 1011.89 1012.39 1012.84 1013.41 1013.90 1014.26 1014.59 1015.17 1015.73 1016.35 1016.68 1017.22 1017.73 1018.32 1018.92 1019.34 1020.09 1020.54 1021.05 1021.47 1021.77 1022.13 1022.50 1022.75
1005.48 1006.17 1007.89 1008.93 1009.69 1010.07 1010.42 1010.78 1011.39 1012.03 1012.55 1013.10 1013.78 1014.16 1014.41 1014.92 1015.46 1016.09 1016.45 1017.17 1017.71 1018.19 1018.69 1019.24 1019.67 1020.40 1020.96 1021.71 1021.96 1022.29 1022.67 1022.99
1004.75 1005.59 1006.51 1008.04 1008.93 1009.58 1010.12 1010.57 1011.25 1012.00 1012.44 1012.74 1013.49 1013.91 1014.27 1014.80 1015.36 1015.53 1016.22 1016.95 1017.35 1017.83 1018.46 1019.02 1019.69 1020.04 1021.22 1022.21 1022.66 1022.58 1022.69 1022.93
1004.04 1004.64 1005.36 1006.62 1007.73 1008.48 1009.58 1010.54 1011.12 1011.65 1012.29 1012.66 1013.24 1013.92 1014.27 1014.71 1015.11 1015.41 1015.88 1016.70 1017.15 1017.50 1017.86 1018.80 1019.39 1019.59 1020.70 1021.93 1022.86 1023.11 1022.92 1023.00
1002.27 1003.06 1003.89 1005.18 1006.77 1008.02 1009.27 1010.42 1011.23 1011.73 1012.16 1012.60 1012.91 1013.49 1014.16 1014.48 1014.68 1015.05 1015.56 1016.13 1016.79 1017.17 1017.54 1018.03 1018.96 1019.54 1019.56 1020.35 1021.81 1022.16 1022.66 1023.16
1001.50 1002.56 1003.64 1004.47 1005.92 1007.19 1007.79 1009.08 1010.20 1010.88 1011.60 1012.38 1013.15 1013.39 1013.94 1014.31 1014.46 1014.69 1015.29 1015.80 1016.32 1016.88 1017.33 1017.66 1018.12 1019.08 1019.68 1019.72 1020.09 1020.60 1021.86 1023.26
1001.57 1002.74 1003.89 1004.54 1005.05 1005.89 1007.00 1008.22 1009.36 1010.25 1011.38 1012.33 1013.07 1013.60 1013.90 1014.37 1014.64 1014.83 1015.24 1015.63 1016.05 1016.49 1017.34 1017.63 1017.84 1018.64 1019.03 1019.69 1020.03 1020.31 1020.65 1021.66
1001.59 1002.51 1003.87 1004.58 1005.18 1005.55 1006.34 1007.37 1008.57 1009.82 1011.01 1012.03 1012.99 1013.52 1014.04 1014.49 1014.78 1015.16 1015.38 1015.82 1016.21 1016.52 1017.18 1017.61 1017.78 1018.10 1018.55 1018.95 1019.36 1019.92 1020.41 1020.86
1002.58 1003.03 1003.86 1004.54 1005.52 1006.15 1006.51 1007.06 1007.84 1008.90 1010.11 1011.24 1012.26 1013.16 1013.78 1014.30 1014.87 1015.34 1015.60 1015.76 1016.34 1016.70 1017.19 1017.81 1017.95 1018.13 1018.78 1019.27 1019.38 1019.74 1019.87 1020.44
1003.45 1003.67 1003.79 1003.99 1005.27 1005.83 1006.49 1006.98 1007.59 1008.33 1009.49 1010.59 1011.67 1012.52 1013.19 1013.96 1014.69 1015.17 1015.84 1016.26 1016.61 1017.14 1017.97 1018.30 1018.65 1018.48 1018.92 1019.43 1019.97 1020.24 1020.23 1020.45
Wind_Speed
12 10 12 13 13 14 13 12 15 18 18 18 15 14 15 15 14 13 12 11 11 10 9 7 5 4 6 10 16 19 12 9
13 10 8 7 9 14 13 15 17 18 18 19 16 14 14 15 14 13 11 11 11 9 7 6 4 3 5 12 20 20 12 11
12 13 11 10 9 11 15 17 17 18 17 20 14 7 7 10 11 14 13 11 9 9 8 6 3 2 6 15 18 8 9 7
11 11 11 10 8 9 10 11 9 8 9 13 7 7 7 8 11 12 12 12 12 10 7 4 1 2 3 12 7 9 8 7
13 12 12 12 9 7 5 5 6 6 10 9 5 6 6 4 4 5 5 8 3 5 5 3 3 4 4 6 8 8 6 5
14 14 14 12 8 7 7 7 6 6 8 9 6 6 6 5 3 5 5 4 5 4 3 5 5 6 7 10 9 7 5 4
16 15 15 13 12 9 8 9 8 8 8 8 8 8 7 6 5 5 4 4 4 5 5 5 5 6 6 9 9 9 8 5
15 16 16 15 13 13 10 9 10 9 8 8 10 8 7 6 6 5 5 5 5 5 5 5 5 5 6 7 9 8 8 6
16 16 15 14 15 14 11 10 10 10 9 11 9 8 7 7 6 5 5 4 7 5 5 5 5 4 7 6 7 8 7 7
17 13 16 14 15 13 10 8 9 8 9 7 8 8 9 7 5 5 5 5 5 5 5 5 5 5 4 5 5 6 8 7
22 17 16 16 12 9 7 8 7 7 7 7 7 8 8 7 5 5 6 5 5 5 2 5 4 4 5 5 5 5 5 6
22 20 18 16 10 5 3 7 6 6 7 8 8 7 7 7 6 7 6 5 5 4 5 3 5 6 8 6 4 5 5 5
22 21 20 15 10 10 7 9 7 5 7 9 8 7 7 6 5 8 6 6 6 7 4 6 2 4 5 4 3 4 5 5
21 22 22 18 13 11 5 5 2 6 6 8 9 7 7 6 9 8 7 6 7 6 6 4 3 6 5 4 2 3 1 3
25 26 24 20 16 11 7 5 3 4 5 8 9 10 7 7 8 8 7 6 7 6 7 7 5 2 7 6 4 5 4 1
22 23 22 20 19 16 20 14 11 7 5 7 7 9 7 7 8 8 7 6 8 6 5 4 5 5 2 2 2 4 4 3
17 19 19 18 19 18 15 15 9 5 7 9 8 5 7 5 6 6 7 5 6 7 5 5 4 4 4 3 2 2 3 4
15 18 17 16 16 17 17 16 12 10 10 9 6 6 5 5 5 5 5 5 6 5 5 6 5 4 3 4 4 4 4 4
8 12 14 14 14 11 14 14 15 15 14 11 11 8 6 7 5 4 3 5 6 5 6 4 4 5 5 3 3 3 3 3
4 8 14 13 13 11 7 11 9 9 12 10 9 9 9 7 6 6 6 6 6 6 3 4 3 5 7 6 4 4 4 3
Wind_Direction
142 151 152 150 153 159 167 162 143 138 132 123 119 131 127 125 122 120 121 118 114 108 102 97 92 65 33 42 60 81 76 69
148 148 151 155 158 134 127 132 134 132 129 122 132 135 131 130 130 128 125 127 126 120 117 113 111 83 50 47 92 75 69 63
152 155 149 145 141 138 133 135 133 135 134 128 139 137 135 133 137 138 140 139 137 136 134 127 99 67 63 80 87 81 74 60
156 157 146 138 142 144 141 143 143 144 143 147 152 151 138 133 144 146 149 152 155 157 146 120 32 16 19 90 91 97 85 73
169 160 150 149 151 148 150 147 153 151 155 162 147 149 137 134 145 151 156 163 165 147 142 155 128 134 82 99 101 90 89 82
173 169 158 159 155 159 162 158 167 165 176 174 144 145 145 149 166 175 168 166 162 150 142 126 102 96 88 96 105 107 106 97
174 168 170 161 163 167 173 173 176 176 178 179 160 157 159 157 176 179 183 176 155 159 131 126 96 91 93 104 121 114 113 111
167 175 174 165 172 175 180 184 177 179 179 172 166 164 165 170 176 176 173 171 150 144 145 133 118 103 82 86 117 120 120 116
177 175 176 176 178 180 182 186 180 179 175 168 170 163 167 163 159 153 155 137 128 123 121 121 114 109 110 101 105 119 129 126
178 177 181 184 184 185 187 180 173 169 167 165 167 167 161 160 152 155 148 133 131 131 140 134 133 141 135 119 111 105 119 138
173 182 185 191 194 186 176 158 156 162 161 169 161 169 160 154 155 154 153 140 140 153 144 140 145 144 139 133 137 131 126 123
176 173 181 185 187 176 146 155 152 148 159 166 160 171 160 156 153 154 151 147 160 153 145 159 146 156 131 122 127 125 136 140
180 178 176 177 177 178 169 183 156 145 165 162 161 168 167 155 163 155 150 159 169 158 134 137 118 132 103 74 48 127 144 152
178 181 174 177 177 179 162 168 140 161 158 164 164 169 172 164 166 170 157 154 158 162 146 137 123 159 135 114 148 332 277 179
181 183 177 174 177 163 138 129 107 149 161 168 171 170 179 168 170 167 164 158 164 169 159 150 146 175 153 150 147 193 133 165
178 175 175 171 164 173 168 172 182 191 160 173 188 177 178 177 178 170 163 162 163 164 160 161 134 156 115 158 120 137 162 133
174 169 176 174 171 174 173 175 183 144 149 168 180 182 178 181 179 162 158 156 159 155 159 156 151 147 143 152 149 140 138 143
172 170 173 174 176 173 172 177 164 160 160 165 176 175 178 187 172 156 146 145 153 146 146 155 147 159 157 161 159 160 181 141
164 167 172 171 180 176 182 173 168 167 162 171 170 175 187 185 157 153 149 130 128 127 130 129 139 123 131 117 93 96 111 112
140 172 158 175 182 175 155 168 170 165 168 166 170 180 180 157 148 131 115 101 102 94 85 85 102 106 111 95 98 77 73 92